Lincoln, NM

3:36 AM MST on February 12, 2016 (GMT -0700)
Sierra Blanca Regional

Weather History for KSRR - July, 2013

Change the Weather History Date:

Wednesday, July 17, 2013

  Actual Average Record
Temperature  
Mean Temperature 58 °F -  
Max Temperature 64 °F 80 °F 87 °F (2005)
Min Temperature 53 °F 57 °F 53 °F (2013)
Degree Days  
Heating Degree Days 6    
Growing Degree Days 8 (Base 50)    
Moisture  
Dew Point 53 °F    
Average Humidity 85    
Maximum Humidity 100    
Minimum Humidity 59    
Precipitation  
Precipitation 0.05 in - - ()
Sea Level Pressure  
Sea Level Pressure 30.45 in    
Wind  
Wind Speed 6 mph (SE)    
Max Wind Speed 16 mph    
Max Gust Speed 21 mph    
Visibility 9 miles    
Events Rain    
Averages and records for this station are not official NWS values.
T = Trace of Precipitation, MM = Missing Value Source: NWS Daily Summary

Daily Weather History Graph

Daily Weather History Graph

Search for Another Location

Airport or City:

Trip Planner

Search our weather history database for the weather conditions in past years. The results will help you decide how hot, cold, wet, or windy it might be!

Date:

Astronomy

Jul. 17, 2013 Rise Set
Actual Time 6:04 AM MDT 8:11 PM MDT
Civil Twilight 5:36 AM MDT 8:39 PM MDT
Nautical Twilight 5:02 AM MDT 9:13 PM MDT
Astronomical Twilight 4:25 AM MDT 9:50 PM MDT
Moon 3:07 PM MDT (7/17) 1:08 AM MDT (7/17)
Length of Visible Light 15h 03m
Length of Day
14h 06m
Waxing Gibbous, 68% of the Moon is Illuminated
Jul 17
Waxing Gibbous
Jul 22
Full
Jul 29
Last Quarter
Aug 6
New
Aug 14
First Quarter

Hourly Weather History & Observations

Time (MDT) Temp. Dew Point Humidity Pressure Visibility Wind Dir Wind Speed Gust Speed Precip Events Conditions
12:15 AM 55.4 °F 51.8 °F 88% 30.43 in 10.0 mi SE 6.9 mph - N/A   Mostly Cloudy
12:35 AM 53.6 °F 51.8 °F 94% 30.42 in 10.0 mi SSE 8.1 mph - N/A   Scattered Clouds
12:55 AM 55.4 °F 51.8 °F 88% 30.42 in 10.0 mi South 4.6 mph - N/A   Clear
1:15 AM 55.4 °F 51.8 °F 88% 30.43 in 10.0 mi SSW 3.5 mph - N/A   Partly Cloudy
1:35 AM 55.4 °F 51.8 °F 88% 30.43 in 10.0 mi Calm Calm - N/A   Mostly Cloudy
1:55 AM 55.4 °F 51.8 °F 88% 30.42 in 10.0 mi SSE 3.5 mph - N/A   Overcast
2:15 AM 55.4 °F 53.6 °F 94% 30.42 in 10.0 mi Calm Calm - N/A   Overcast
2:35 AM 55.4 °F 51.8 °F 88% 30.41 in 10.0 mi Calm Calm - N/A   Overcast
2:55 AM 55.4 °F 53.6 °F 94% 30.41 in 10.0 mi Calm Calm - N/A   Overcast
3:15 AM 55.4 °F 53.6 °F 94% 30.41 in 10.0 mi Calm Calm - N/A   Overcast
3:35 AM 55.4 °F 53.6 °F 94% 30.41 in 10.0 mi Calm Calm - N/A   Overcast
3:55 AM 55.4 °F 53.6 °F 94% 30.41 in 10.0 mi Calm Calm - N/A   Overcast
4:15 AM 53.6 °F 53.6 °F 100% 30.41 in 10.0 mi Calm Calm - N/A   Overcast
4:35 AM 53.6 °F 53.6 °F 100% 30.41 in 10.0 mi Calm Calm - N/A   Overcast
4:55 AM 53.6 °F 53.6 °F 100% 30.42 in 9.0 mi ENE 4.6 mph - N/A   Overcast
5:15 AM 53.6 °F 53.6 °F 100% 30.42 in 7.0 mi Calm Calm - N/A   Overcast
5:35 AM 53.6 °F 53.6 °F 100% 30.42 in 8.0 mi Calm Calm - N/A   Overcast
5:55 AM 55.4 °F 53.6 °F 94% 30.43 in 8.0 mi Calm Calm - N/A   Overcast
6:15 AM 55.4 °F 53.6 °F 94% 30.43 in 8.0 mi Calm Calm - N/A   Overcast
6:35 AM 55.4 °F 53.6 °F 94% 30.44 in 9.0 mi Calm Calm - N/A   Overcast
6:55 AM 55.4 °F 53.6 °F 94% 30.44 in 7.0 mi Calm Calm - N/A   Overcast
7:15 AM 55.4 °F 53.6 °F 94% 30.45 in 6.0 mi East 3.5 mph - N/A   Mostly Cloudy
7:35 AM 55.4 °F 53.6 °F 94% 30.45 in 7.0 mi Calm Calm - N/A   Overcast
7:55 AM 55.4 °F 53.6 °F 94% 30.46 in 7.0 mi NNE 3.5 mph - N/A   Overcast
8:15 AM 53.6 °F 51.8 °F 94% 30.47 in 10.0 mi ESE 4.6 mph - N/A   Overcast
8:35 AM 55.4 °F 51.8 °F 88% 30.47 in 10.0 mi South 6.9 mph - N/A   Mostly Cloudy
8:55 AM 53.6 °F 50.0 °F 88% 30.48 in 10.0 mi SE 5.8 mph - N/A   Mostly Cloudy
9:15 AM 53.6 °F 50.0 °F 88% 30.48 in 10.0 mi South 4.6 mph - N/A   Overcast
9:35 AM 53.6 °F 51.8 °F 94% 30.48 in 8.0 mi South 8.1 mph - N/A Rain Light Rain
9:55 AM 55.4 °F 53.6 °F 94% 30.47 in 10.0 mi South 5.8 mph - N/A   Mostly Cloudy
10:15 AM 57.2 °F 51.8 °F 82% 30.47 in 10.0 mi East 9.2 mph - N/A   Scattered Clouds
10:35 AM 59.0 °F 53.6 °F 82% 30.47 in 10.0 mi ESE 6.9 mph - N/A   Mostly Cloudy
10:55 AM 60.8 °F 51.8 °F 72% 30.48 in 10.0 mi ESE 8.1 mph - N/A   Mostly Cloudy
11:15 AM 60.8 °F 50.0 °F 68% 30.48 in 10.0 mi ESE 12.7 mph 19.6 mph N/A   Overcast
11:35 AM 62.6 °F 53.6 °F 72% 30.47 in 10.0 mi ESE 10.4 mph 16.1 mph N/A   Mostly Cloudy
11:55 AM 64.4 °F 51.8 °F 64% 30.47 in 10.0 mi ESE 12.7 mph 20.7 mph N/A   Mostly Cloudy
12:15 PM 62.6 °F 51.8 °F 68% 30.47 in 10.0 mi ESE 12.7 mph 20.7 mph N/A   Scattered Clouds
12:35 PM 62.6 °F 51.8 °F 68% 30.46 in 10.0 mi SE 16.1 mph 19.6 mph N/A   Scattered Clouds
12:55 PM 62.6 °F 50.0 °F 63% 30.46 in 10.0 mi ESE 13.8 mph 20.7 mph N/A   Scattered Clouds
1:15 PM 62.6 °F 51.8 °F 68% 30.46 in 10.0 mi SE 10.4 mph - N/A   Scattered Clouds
1:35 PM 62.6 °F 50.0 °F 63% 30.47 in 10.0 mi SE 13.8 mph 19.6 mph N/A   Partly Cloudy
1:55 PM 62.6 °F 50.0 °F 63% 30.46 in 10.0 mi SE 15.0 mph - N/A   Partly Cloudy
2:15 PM 64.4 °F 50.0 °F 59% 30.45 in 10.0 mi SE 12.7 mph 17.3 mph N/A   Clear
2:35 PM 64.4 °F 50.0 °F 59% 30.45 in 10.0 mi SE 10.4 mph - N/A   Partly Cloudy
2:55 PM 64.4 °F 50.0 °F 59% 30.45 in 10.0 mi SE 13.8 mph - N/A   Scattered Clouds
3:15 PM 62.6 °F 50.0 °F 63% 30.45 in 10.0 mi SE 12.7 mph 17.3 mph N/A   Partly Cloudy
3:35 PM 62.6 °F 50.0 °F 63% 30.44 in 10.0 mi ESE 10.4 mph 17.3 mph N/A   Partly Cloudy
3:55 PM 62.6 °F 50.0 °F 63% 30.44 in 10.0 mi ESE 10.4 mph - N/A   Mostly Cloudy
4:15 PM 60.8 °F 53.6 °F 77% 30.43 in 10.0 mi ESE 13.8 mph - N/A   Overcast
4:35 PM 60.8 °F 53.6 °F 77% 30.43 in 10.0 mi SE 13.8 mph - N/A   Mostly Cloudy
4:55 PM 59.0 °F 53.6 °F 82% 30.44 in 10.0 mi SE 15.0 mph - N/A   Overcast
5:15 PM 59.0 °F 53.6 °F 82% 30.44 in 5.0 mi SE 13.8 mph - N/A   Haze
5:35 PM 57.2 °F 53.6 °F 88% 30.43 in 7.0 mi ESE 11.5 mph - N/A   Mostly Cloudy
5:55 PM 59.0 °F 53.6 °F 82% 30.43 in 10.0 mi SE 10.4 mph - N/A   Mostly Cloudy
6:15 PM 59.0 °F 51.8 °F 77% 30.42 in 10.0 mi SE 11.5 mph - N/A   Scattered Clouds
6:35 PM 59.0 °F 53.6 °F 82% 30.42 in 10.0 mi ESE 9.2 mph 17.3 mph N/A   Scattered Clouds
6:55 PM 59.0 °F 53.6 °F 82% 30.42 in 10.0 mi ESE 8.1 mph - N/A   Scattered Clouds
7:15 PM 59.0 °F 51.8 °F 77% 30.43 in 10.0 mi ESE 8.1 mph - N/A   Partly Cloudy
7:35 PM 59.0 °F 51.8 °F 77% 30.43 in 10.0 mi ESE 6.9 mph - N/A   Mostly Cloudy
7:55 PM 59.0 °F 53.6 °F 82% 30.44 in 10.0 mi East 5.8 mph - N/A   Mostly Cloudy
8:15 PM 57.2 °F 53.6 °F 88% 30.44 in 10.0 mi SE 6.9 mph - N/A   Mostly Cloudy
8:35 PM 57.2 °F 53.6 °F 88% 30.45 in 3.0 mi SE 8.1 mph - 0.04 in Rain Rain
8:55 PM 55.4 °F 55.4 °F 100% 30.45 in 10.0 mi SE 5.8 mph - 0.05 in   Mostly Cloudy
9:15 PM 55.4 °F 55.4 °F 100% 30.46 in 9.0 mi SE 5.8 mph - N/A   Mostly Cloudy
9:35 PM 55.4 °F 55.4 °F 100% 30.46 in 9.0 mi ESE 4.6 mph - N/A Rain Light Rain
9:55 PM 55.4 °F 55.4 °F 100% 30.47 in 7.0 mi ESE 8.1 mph - N/A   Overcast
10:15 PM 55.4 °F 55.4 °F 100% 30.48 in 10.0 mi ESE 3.5 mph - N/A   Overcast
10:35 PM 55.4 °F 55.4 °F 100% 30.48 in 5.0 mi SE 4.6 mph - N/A   Overcast
10:55 PM 55.4 °F 55.4 °F 100% 30.47 in 10.0 mi SE 5.8 mph - N/A   Overcast
11:15 PM 55.4 °F 55.4 °F 100% 30.47 in 10.0 mi ESE 5.8 mph - N/A   Overcast
11:35 PM 55.4 °F 55.4 °F 100% 30.47 in 7.0 mi Calm Calm - N/A   Overcast
11:55 PM 55.4 °F 55.4 °F 100% 30.47 in 10.0 mi ESE 3.5 mph - N/A   Overcast